Location: Earls Croome
(52.0667°N, 2.2000°W)
Time: 16:51:27
(UTC+00:00)

COSMOS 2455 - Pass Details

Date: 01 March 2020
Orbit: 901 x 909 km, 67.2° (Epoch: 04 April)

Event Time Altitude Azimuth Distance (km) Brightness Sun altitude
Rises 22:35:10 0° 257° (WSW) 3,526 6.2 -40.1°
Reaches altitude 10° 22:37:57 10° 267° (W) 2,589 5.5 -40.3°
Enters shadow 22:39:07 15° 274° (W) 2,236 5.2 -40.4°
Exits shadow 22:50:29 - 39° (NE) 3,218 5.9 -41.4°
Sets 22:51:26 0° 42° (NE) 3,546 6.1 -41.4°
